Location: Zagreb
(45.8000°N, 16.0000°E)
Time: 18:23:07
(UTC+02:00)

Tiros 1 despin weight - Pass Details

Date: 13 August 2022
Orbit: 591 x 638 km, 48.2° (Epoch: 06 October)

Event Time Altitude Azimuth Distance (km) Brightness Sun altitude
Rises 11:50:23 0° 211° (SSW) 2,862 ? 55.5°
Reaches altitude 10° 11:52:57 10° 199° (SSW) 1,952 ? 55.7°
Maximum altitude 11:56:42 26° 142° (SE) 1,183 ? 56.0°
Drops below altitude 10° 12:00:24 10° 86° (E) 1,936 ? 56.3°
Sets 12:02:57 0° 74° (ENE) 2,835 ? 56.5°
